Miscellaneous Local Product
Issued by NWS Hastings, NE

Home | Current Version | Previous Version | Text Only | Print | Product List | Glossary Off
Versions: 1 2 3 4 5 6 7 8 9 10 11 12 13 14 15 16 17 18 19 20 21 22 23 24 25 26 27 28 29 30 31 32 33 34 35 36 37 38 39 40 41 42 43 44 45 46 47 48 49 50

992
AXUS43 KGID 190302
MISGRI

GID CWA HOURLY WEATHER ROUNDUP
NATIONAL WEATHER SERVICE HASTINGS NE
1000 PM CDT TUE JUL 18 2017

NOTE: "FAIR" INDICATES FEW OR NO CLOUDS BELOW 12,000 FEET WITH NO
SIGNIFICANT WEATHER AND/OR OBSTRUCTIONS TO VISIBILITY.

...SOUTH CENTRAL NEBRASKA...

CITY           SKY/WX    TMP DP  RH WIND       PRES   REMARKS
GRAND ISLAND   CLOUDY    79  78  97 NE7       30.02R
HASTINGS       CLEAR     81  76  84 NE8       30.02R
ORD            CLOUDY    79  70  74 E3        30.03R
YORK           CLEAR     79  77  94 CALM      30.01R
AURORA         CLEAR     78  77  97 E6        30.01R
LEXINGTON      CLOUDY    79  73  84 E6        30.04S
HOLDREGE       CLOUDY    77  74  91 NE6       30.02S
HEBRON         CLEAR     83  73  70 SE5       29.98R

...NEBRASKA PANHANDLE...

CITY           SKY/WX    TMP DP  RH WIND       PRES   REMARKS
CHADRON        CLEAR     79  61  53 E6        30.04R
ALLIANCE       CLEAR     77  61  57 E8        30.09R
SCOTTSBLUFF    CLEAR     79  61  53 E7        30.08R
SIDNEY         CLOUDY    77  63  61 SE13      30.15S

...WESTERN AND NORTH CENTRAL NEBRASKA...

CITY           SKY/WX    TMP DP  RH WIND       PRES   REMARKS
VALENTINE      CLOUDY    83  63  50 SE10      30.05R
AINSWORTH      CLEAR     76  69  78 SE7       30.08R
ONEILL         CLEAR     80  70  70 SE5       30.06R
BROKEN BOW     CLOUDY    74  71  91 NE3       30.06R
IMPERIAL       CLOUDY    72  62  71 S3        30.08F
NORTH PLATTE   CLOUDY    78  73  84 E7        30.05S
MCCOOK         CLOUDY    80  74  81 NE7       30.04R

...EASTERN NEBRASKA...

CITY           SKY/WX    TMP DP  RH WIND       PRES   REMARKS
NORFOLK        CLOUDY    80  72  76 SE3       30.01R
SO SIOUX CITY  PTCLDY    80  74  81 CALM      30.01R
TEKAMAH        MOCLDY    81  76  84 SE7       30.01R
COLUMBUS       CLEAR     79  75  87 E6        30.02R
ALBION         CLOUDY    81  74  80 E3        30.04R
OMAHA EPPLEY   MOCLDY    84  75  74 E3        30.01R HX  92
OFFUTT AFB     CLEAR     80  75  84 E6        30.01R
MILLARD        MOCLDY    85  78  79 E3        30.01R HX  97
LINCOLN        CLEAR     83  77  82 E8        30.00R HX  92
NEBRASKA CITY  CLEAR     81  78  91 SE5       30.01R
BEATRICE       PTCLDY    82  73  73 SE6       29.99R
FALLS CITY     MOCLDY    80  71  74 SE6       30.00R

...NORTHERN KANSAS...

CITY           SKY/WX    TMP DP  RH WIND       PRES   REMARKS
GOODLAND       CLOUDY    80  67  64 NE14      30.11R
HILL CITY      PTCLDY    86  75  69 NE5       29.99R HX  95
NORTON         CLEAR     79  70  73 N8        30.01R
PHILLIPSBURG   CLEAR     84  70  61 NE9       29.96R
SMITH CENTER   CLEAR     81  66  61 E7        29.97R
HAYS           CLEAR     89  66  46 S14       29.97R HX  91
RUSSELL        CLEAR     88  65  46 S14       29.96R HX  90
CONCORDIA      CLOUDY    84  70  62 SE12      29.97R
SALINA         CLEAR     89  68  49 S18       29.96R HX  93
TOPEKA         CLEAR     82  72  71 SE9       30.01R



USA.gov is the U.S. government's official web portal to all federal, state and local government web resources and services.